Tracking 20083 objects as of 12-Dec-2019
HD Live streaming from Space Station
objects crossing your sky now

COSMOS 2251 DEB

Track COSMOS 2251 DEB now!
10-day predictions


NORAD ID: 34567
Int'l Code: 1993-036VD
Perigee: 771.8 km
Apogee: 881.2 km
Inclination: 74.0 °
Period: 101.3 minutes
Semi major axis: 7197 km
RCS: 0.051 m2 (small)
Launch date: June 16, 1993
Source: Commonwealth of Independent States (former USSR) (CIS)
Launch site: PLESETSK MISSILE AND SPACE COMPLEX (PKMTR)

Note: This is SATELLITE DEBRIS
aabbcc
Your satellite tracking list
Your tracking list is empty




NASA's NSSDC Master Catalog

Two Line Element Set (TLE):
1 34567U 93036VD  19345.83284928 +.00000121 +00000-0 +64611-4 0  9998
2 34567 074.0411 133.5314 0075969 012.7842 098.8589 14.21768546559431
Source of the keplerian elements: AFSPC